[[{"header":{"parameterUnit":"m.s-1","parameterCategory":1,"la1":30.2991,"la2":30.254,"lo1":-89.0895,"lo2":-89.0444,"dy":0.0017,"dx":0.0017,"nx":28,"ny":28,"refTime":"2024-08-15T09:00:00:Z","depth":0,"parameterNumber":2,"parameterNumberName":"U-component_of_WINDS"},"data":[0,0,0,0,0,0,0,0,0,0,0,0,0,0,0,0,0,0,0,0,0,0,0,0,0,0,0,0,0,0,0,0,0,0,0,0,0,0,0,0,0,0,0,0,0,0,0,0,0,0,0,0,0,0,0,0,0,0,-1.5401,-1.5401,0,-1.5428,-1.5429,-1.5429,-1.5392,-1.5391,-1.539,-1.5389,-1.5418,-1.542,-1.5422,0,0,0,0,0,0,0,0,0,0,0,0,0,-1.5318,-1.5319,-1.5401,-1.5401,-1.5401,-1.5428,-1.5429,-1.5429,-1.5393,-1.5391,-1.5389,-1.5388,-1.5417,-1.5419,-1.5422,0,0,0,0,0,0,0,0,0,0,0,0,0,-1.535,-1.532,-1.5401,-1.5386,-1.5385,-1.5428,-1.5429,-1.5429,-1.5393,-1.5391,-1.5389,-1.5387,-1.5416,-1.5419,-1.5422,-1.548,0,0,-1.5431,-1.5433,0,0,0,0,0,0,0,0,-1.5349,-1.5353,-1.5388,-1.5388,-1.5386,-1.5405,-1.541,-1.5446,-1.5393,-1.539,-1.5388,-1.5386,-1.5415,-1.5418,-1.5428,-1.5482,-1.5483,-1.5432,-1.5433,-1.5435,-1.5435,0,0,0,0,0,0,0,-1.5346,-1.5352,-1.5412,-1.5389,-1.5388,-1.5379,-1.5382,-1.5417,-1.5413,-1.539,-1.5388,-1.5391,-1.5414,-1.5425,-1.5428,-1.5483,-1.5431,-1.5434,-1.5436,-1.5437,-1.5586,-1.5588,0,0,0,0,0,0,-1.5346,-1.535,-1.5411,-1.5412,-1.5362,-1.5382,-1.5385,-1.5401,-1.5413,-1.5413,-1.5393,-1.539,-1.5421,-1.5424,-1.5429,-1.5498,-1.5435,-1.5437,-1.5439,-1.5584,-1.5587,-1.5589,0,0,0,0,0,0,-1.5344,-1.5351,-1.541,-1.5381,-1.5387,-1.5386,-1.5404,-1.5403,-1.5413,-1.5415,-1.5414,-1.5404,-1.5419,-1.5425,-1.5468,-1.5498,-1.5439,-1.5442,-1.5582,-1.5585,-1.5588,-1.5636,0,0,0,0,0,0,-1.5342,-1.5351,-1.5373,-1.5381,-1.5389,-1.5448,-1.5406,-1.5405,-1.5418,-1.5414,-1.5425,-1.5425,-1.5418,-1.5463,-1.5471,-1.5501,-1.5444,-1.5579,-1.5583,-1.5587,-1.5632,-1.564,-1.5648,0,0,0,0,0,-1.5339,-1.5385,-1.5374,-1.5382,-1.5416,-1.545,-1.5454,-1.5444,-1.5421,-1.5443,-1.5444,-1.5425,-1.5494,-1.5468,-1.5476,-1.5508,-1.5577,-1.5582,-1.5587,-1.5628,-1.5639,-1.5648,0,0,0,0,0,0,-1.5381,-1.5386,-1.5374,-1.5424,-1.5437,-1.5443,-1.5471,-1.5456,-1.5476,-1.5471,-1.5458,-1.5461,-1.5507,-1.5512,-1.5483,-1.5565,-1.5531,-1.5538,-1.556,-1.557,-1.5578,-1.5576,-1.5446,0,0,0,0,0,-1.5396,-1.5422,-1.5426,-1.547,-1.5477,-1.5473,-1.5487,-1.5478,-1.5491,-1.5496,-1.55,-1.5514,-1.5538,-1.5554,-1.5577,-1.5632,-1.5634,-1.5658,-1.5666,-1.5673,-1.5679,-1.5708,-1.5719,-1.5605,-1.5605,-1.5605,0,0,-1.5428,-1.5434,-1.5451,-1.5479,-1.5487,-1.5515,-1.5478,-1.5509,-1.5529,-1.5501,-1.5542,-1.5545,-1.5559,-1.5608,-1.563,-1.5614,-1.571,-1.5679,-1.5684,-1.5687,-1.5714,-1.5725,-1.5735,-1.5608,-1.5608,-1.5607,0,0,-1.5499,-1.5507,-1.5544,-1.5553,-1.5567,-1.5564,-1.5573,-1.5582,-1.5583,-1.5624,-1.5603,-1.5628,-1.567,-1.568,-1.5691,-1.5767,-1.575,-1.5775,-1.5818,-1.5847,-1.5855,-1.5863,-1.589,-1.59,-1.5781,-1.5781,-1.5781,0,-1.5537,-1.5578,-1.5566,-1.5598,-1.5611,-1.5586,-1.5624,-1.5634,-1.5654,-1.5664,-1.5645,-1.5697,-1.5705,-1.5756,-1.5775,-1.5784,-1.5795,-1.5774,-1.5855,-1.5863,-1.587,-1.5896,-1.5906,-1.5784,-1.5783,-1.5783,-1.5783,0,-1.5623,-1.5652,-1.5681,-1.57,-1.5716,-1.5752,-1.5745,-1.5763,-1.5753,-1.5752,-1.5794,-1.5802,-1.5826,-1.5838,-1.5828,-1.5888,-1.5877,-1.5857,-1.5823,-1.5884,-1.5908,-1.5918,-1.5788,-1.5787,-1.5786,-1.5785,0,0,-1.5723,-1.5735,-1.5746,-1.5754,-1.5767,-1.5789,-1.5823,-1.5846,-1.5862,-1.5876,-1.5905,-1.5941,-1.5923,-1.5935,-1.5927,-1.5952,-1.6012,-1.5929,-1.5929,-1.5944,-1.6078,-1.6093,-1.6105,-1.6,-1.6002,-1.6004,-1.6077,0,-1.5794,-1.5853,-1.5843,-1.59,-1.5927,-1.5903,-1.5933,-1.5944,-1.5945,-1.5967,-1.5967,-1.5993,-1.5966,-1.5974,-1.5998,-1.5999,-1.6038,-1.5994,-1.6027,-1.6029,-1.6025,-1.6117,-1.6134,-1.6202,-1.6086,-1.6088,-1.6089,0,-1.5886,-1.5904,-1.5963,-1.5972,-1.5982,-1.6009,-1.6029,-1.6051,-1.6064,-1.6062,-1.6076,-1.6063,-1.6097,-1.6063,-1.611,-1.608,-1.6093,-1.6096,-1.6098,-1.6101,-1.6063,-1.6123,-1.6224,-1.6235,-1.6103,-1.6102,-1.6101,0,-1.5953,-1.5992,-1.6032,-1.604,-1.6051,-1.607,-1.6076,-1.6086,-1.6101,-1.6118,-1.6128,-1.6149,-1.6161,-1.6178,-1.6172,-1.6147,-1.622,-1.6185,-1.622,-1.6221,-1.6237,-1.6236,-1.6342,-1.6245,-1.6245,-1.6245,-1.6245,0,-1.6034,-1.6072,-1.6062,-1.6087,-1.6129,-1.6117,-1.6158,-1.6161,-1.617,-1.6196,-1.6177,-1.6201,-1.6191,-1.6214,-1.6209,-1.6249,-1.6255,-1.6255,-1.6253,-1.6257,-1.6257,-1.6265,-1.626,-1.6248,-1.6247,-1.6246,-1.6246,0,-1.6116,-1.6111,-1.6154,-1.616,-1.6163,-1.6193,-1.6199,-1.6222,-1.6221,-1.6253,-1.626,-1.6258,-1.6285,-1.628,-1.6309,-1.6306,-1.6356,-1.6348,-1.6352,-1.635,-1.6386,-1.6383,-1.6501,-1.6516,-1.6409,-1.641,-1.6411,0,-1.6169,-1.6197,-1.6206,-1.6221,-1.6228,-1.6253,-1.6268,-1.6257,-1.6273,-1.6289,-1.6311,-1.6336,-1.6356,-1.64,-1.6401,-1.6424,-1.6417,-1.6456,-1.642,-1.6423,-1.6417,-1.6416,-1.6419,-1.6464,-1.6465,-1.6466,-1.6467,0,-1.6262,-1.6258,-1.628,-1.63,-1.6318,-1.6334,-1.6348,-1.6361,-1.6352,-1.6371,-1.6398,-1.6413,-1.6443,-1.6469,-1.649,-1.6495,-1.648,-1.6478,-1.6487,-1.6492,-1.6493,-1.6493,-1.6372,-1.6476,-1.6475,-1.6474,-1.6474,-1.6473,-1.6331,-1.6355,-1.6365,-1.639,-1.6399,-1.6413,-1.6435,-1.6436,-1.6458,-1.6482,-1.6474,-1.6505,-1.6516,-1.6543,-1.6551,-1.6575,-1.6561,-1.6574,-1.6578,-1.6581,-1.6586,-1.6489,-1.6579,-1.6579,-1.6579,-1.6578,-1.6578,0,-1.6424,-1.643,-1.6452,-1.6472,-1.6491,-1.6474,-1.6489,-1.6506,-1.6533,-1.6545,-1.6564,-1.6596,-1.662,-1.6623,-1.6646,-1.6665,-1.6658,-1.6671,-1.667,-1.6672,-1.6597,-1.6587,-1.6676,-1.6676,-1.6676,-1.6676,-1.6676,-1.6676,-1.6475,-1.6515,-1.6512,-1.6556,-1.6561,-1.6591,-1.6601,-1.6613,-1.6622,-1.6658,-1.6677,-1.6679,-1.6687,-1.6711,-1.6733,-1.6733,-1.6742,-1.6758,-1.6756,-1.6687,-1.6677,-1.6668,-1.6658,-1.676,-1.676,-1.6828,-1.6829,-1.6829]},{"header":{"parameterUnit":"m.s-1","parameterCategory":1,"la1":30.2991,"la2":30.254,"lo1":-89.0895,"lo2":-89.0444,"dy":0.0017,"dx":0.0017,"nx":28,"ny":28,"refTime":"2024-08-15T09:00:00:Z","depth":0,"parameterNumber":3,"parameterNumberName":"V-component_of_WINDS"},"data":[0,0,0,0,0,0,0,0,0,0,0,0,0,0,0,0,0,0,0,0,0,0,0,0,0,0,0,0,0,0,0,0,0,0,0,0,0,0,0,0,0,0,0,0,0,0,0,0,0,0,0,0,0,0,0,0,0,0,3.2733,3.2734,0,3.2788,3.2789,3.279,3.2763,3.2761,3.276,3.2759,3.2812,3.2815,3.2818,0,0,0,0,0,0,0,0,0,0,0,0,0,3.26,3.2602,3.2733,3.2734,3.2734,3.2788,3.2789,3.279,3.2763,3.2761,3.276,3.2758,3.2811,3.2815,3.2818,0,0,0,0,0,0,0,0,0,0,0,0,0,3.2656,3.2603,3.2733,3.2728,3.2728,3.2788,3.2789,3.279,3.2763,3.2761,3.2759,3.2757,3.281,3.2814,3.2818,3.2886,0,0,3.2831,3.2833,0,0,0,0,0,0,0,0,3.2653,3.2661,3.2728,3.2728,3.2728,3.2767,3.2762,3.2822,3.2764,3.275,3.2759,3.2756,3.2799,3.2803,3.2818,3.2889,3.2891,3.2831,3.2834,3.2836,3.2837,0,0,0,0,0,0,0,3.2649,3.2659,3.2755,3.2729,3.2729,3.2721,3.2727,3.2773,3.2785,3.2751,3.2749,3.2756,3.2798,3.2815,3.282,3.2892,3.2831,3.2835,3.2837,3.2839,3.3018,3.3021,0,0,0,0,0,0,3.2646,3.2656,3.2753,3.2756,3.2685,3.2725,3.2732,3.2756,3.2785,3.2787,3.2758,3.2755,3.2809,3.2815,3.2821,3.2901,3.2836,3.2839,3.2842,3.3016,3.3019,3.3021,0,0,0,0,0,0,3.2643,3.2655,3.2751,3.2706,3.2717,3.273,3.2758,3.2759,3.2775,3.279,3.2792,3.2773,3.2807,3.2816,3.287,3.2902,3.2841,3.2845,3.3013,3.3017,3.302,3.3062,0,0,0,0,0,0,3.264,3.2654,3.2681,3.2707,3.272,3.28,3.276,3.2761,3.2782,3.2779,3.2804,3.2806,3.2806,3.2864,3.2874,3.2907,3.2848,3.301,3.3015,3.3019,3.3058,3.3066,3.3074,0,0,0,0,0,3.2635,3.2691,3.2683,3.2695,3.2754,3.2802,3.2809,3.2809,3.2785,3.2811,3.2821,3.2806,3.2898,3.287,3.2881,3.2916,3.3008,3.3014,3.3019,3.3054,3.3065,3.3074,0,0,0,0,0,0,3.2668,3.2694,3.2686,3.2751,3.2775,3.2797,3.2831,3.282,3.285,3.2845,3.2842,3.2848,3.2904,3.2916,3.2884,3.2982,3.2949,3.2957,3.2972,3.2982,3.299,3.2986,3.2852,0,0,0,0,0,3.2684,3.2722,3.2741,3.2797,3.281,3.2818,3.2839,3.2837,3.286,3.287,3.2883,3.2906,3.294,3.2962,3.2994,3.306,3.3063,3.3089,3.3097,3.3103,3.3109,3.3143,3.3153,3.3038,3.3038,3.3038,0,0,3.2715,3.2734,3.2758,3.2805,3.2822,3.286,3.2827,3.2869,3.2896,3.2876,3.2928,3.2939,3.2963,3.3023,3.305,3.3034,3.3142,3.311,3.3115,3.3118,3.3149,3.316,3.317,3.3042,3.3041,3.3041,0,0,3.2791,3.281,3.2858,3.2876,3.2904,3.2909,3.292,3.2945,3.2951,3.3003,3.2988,3.302,3.3079,3.3097,3.3114,3.3195,3.3181,3.3206,3.3247,3.328,3.3289,3.3297,3.3324,3.3334,3.3212,3.3212,3.3212,0,3.2826,3.2884,3.2883,3.2926,3.2946,3.293,3.2977,3.2995,3.3031,3.3045,3.3027,3.3099,3.3115,3.3178,3.3197,3.3212,3.3224,3.3202,3.3288,3.3296,3.3303,3.3329,3.3339,3.3215,3.3215,3.3214,3.3214,0,3.2924,3.2964,3.2999,3.3035,3.3059,3.3104,3.3109,3.3133,3.3128,3.3135,3.3187,3.3206,3.324,3.3255,3.3251,3.3317,3.3306,3.3288,3.3255,3.3317,3.3341,3.3351,3.3219,3.3218,3.3217,3.3216,0,0,3.3022,3.3057,3.307,3.3085,3.3114,3.3144,3.3187,3.3222,3.3241,3.3267,3.3301,3.3351,3.3335,3.3354,3.3351,3.338,3.344,3.3358,3.3359,3.3371,3.3511,3.3523,3.3535,3.3432,3.3434,3.3435,3.3509,0,3.3099,3.3176,3.3176,3.3246,3.3281,3.3266,3.3304,3.3324,3.3331,3.3361,3.3369,3.3403,3.338,3.3391,3.3419,3.3427,3.3468,3.3422,3.3462,3.3464,3.3455,3.3548,3.3561,3.3629,3.3518,3.352,3.3521,0,3.3198,3.3227,3.3301,3.3323,3.3338,3.3371,3.3402,3.3432,3.3454,3.3457,3.3478,3.3471,3.3513,3.3479,3.3536,3.3505,3.3521,3.3528,3.353,3.3532,3.3495,3.355,3.3651,3.366,3.3536,3.3535,3.3534,0,3.326,3.3317,3.3368,3.3382,3.3409,3.3433,3.3445,3.3466,3.3486,3.3513,3.3525,3.3556,3.3573,3.3596,3.3597,3.3573,3.3653,3.362,3.3655,3.3655,3.3671,3.367,3.3774,3.3685,3.3685,3.3685,3.3685,0,3.3344,3.3389,3.3396,3.3427,3.3476,3.3476,3.3524,3.3534,3.3552,3.3584,3.3573,3.3602,3.3602,3.3632,3.3633,3.3678,3.3686,3.3688,3.3687,3.3688,3.3688,3.3698,3.3692,3.3687,3.3687,3.3686,3.3686,0,3.3421,3.3428,3.3482,3.3503,3.3509,3.3545,3.3562,3.3591,3.3597,3.3637,3.3646,3.3655,3.3689,3.3692,3.3732,3.3732,3.3787,3.3782,3.3779,3.3778,3.3811,3.3807,3.3924,3.3938,3.3842,3.3843,3.3844,0,3.3474,3.3508,3.3533,3.3553,3.3567,3.3601,3.3621,3.3622,3.3643,3.367,3.3695,3.3729,3.3755,3.381,3.3819,3.3849,3.3843,3.3882,3.3847,3.3846,3.3841,3.3838,3.3841,3.3888,3.3889,3.389,3.3891,0,3.3565,3.3567,3.3597,3.3628,3.3653,3.3677,3.37,3.3717,3.372,3.3745,3.378,3.38,3.384,3.3873,3.3902,3.3913,3.3902,3.3902,3.3911,3.3911,3.3907,3.3907,3.3795,3.3899,3.3898,3.3897,3.3897,3.3896,3.363,3.3659,3.3681,3.3714,3.3732,3.3753,3.378,3.379,3.3819,3.3852,3.3851,3.3889,3.3909,3.3946,3.396,3.3988,3.3975,3.3989,3.3992,3.3995,3.3997,3.3904,3.3994,3.3994,3.3993,3.3993,3.3993,0,3.372,3.3733,3.3764,3.3796,3.3822,3.381,3.3835,3.3857,3.389,3.3911,3.3937,3.3976,3.4007,3.4018,3.4048,3.4069,3.4064,3.4076,3.4074,3.4076,3.4009,3.3997,3.4079,3.4079,3.4079,3.4079,3.4079,3.4079,3.3769,3.3817,3.382,3.3876,3.3888,3.3926,3.394,3.3959,3.3975,3.4019,3.4045,3.4053,3.4069,3.4099,3.4127,3.4129,3.414,3.4154,3.4154,3.409,3.4081,3.4073,3.4062,3.4156,3.4157,3.4218,3.4219,3.4219]}]]